Precipitable_Water
0.57 0.56 0.57 0.55 0.54 0.53 0.53 0.53 0.52 0.54 0.55 0.55 0.54 0.53 0.52 0.52 0.52 0.52 0.52 0.50 0.52 0.52 0.53 0.53 0.53 0.53 0.52 0.51 0.51 0.51 0.52 0.52 0.55 0.60 0.60 0.59 0.59 0.59 0.59 0.56 0.52 0.52 0.54 0.56 0.63 0.66 0.66 0.68 0.72 0.77 0.82 0.80 0.81 0.85 0.91 0.99 1.06 1.10 1.11 1.08 1.07 1.09 1.03 0.93 0.79 0.74 0.80 0.88 0.86 0.87 0.96 1.01 0.99 1.01 0.97 0.95 0.96 0.98 0.96 0.94 0.92 0.87 0.83 0.77 0.72
0.57 0.57 0.58 0.57 0.55 0.55 0.54 0.54 0.53 0.52 0.51 0.53 0.52 0.52 0.52 0.52 0.53 0.52 0.51 0.53 0.54 0.53 0.53 0.54 0.54 0.54 0.54 0.54 0.54 0.54 0.52 0.52 0.57 0.61 0.58 0.56 0.55 0.58 0.58 0.56 0.53 0.52 0.54 0.54 0.58 0.64 0.65 0.65 0.68 0.73 0.80 0.81 0.83 0.83 0.88 0.91 0.97 1.03 1.06 1.06 1.06 1.06 1.09 1.01 0.90 0.79 0.74 0.83 0.82 0.87 0.90 0.98 0.92 1.01 0.95 0.92 0.94 0.95 0.92 0.93 0.92 0.89 0.84 0.80 0.76
0.59 0.60 0.58 0.56 0.55 0.55 0.53 0.51 0.51 0.51 0.51 0.51 0.50 0.50 0.51 0.52 0.53 0.52 0.52 0.51 0.53 0.53 0.53 0.53 0.54 0.54 0.54 0.54 0.53 0.51 0.50 0.52 0.57 0.60 0.58 0.57 0.56 0.57 0.60 0.59 0.56 0.53 0.52 0.52 0.54 0.58 0.59 0.61 0.64 0.70 0.76 0.77 0.79 0.83 0.88 0.89 0.92 0.94 1.00 1.06 1.06 1.08 1.08 1.09 1.00 0.84 0.78 0.78 0.83 0.80 0.82 0.89 0.90 0.94 0.97 0.96 0.96 0.93 0.90 0.90 0.89 0.88 0.86 0.82 0.79
0.60 0.60 0.57 0.56 0.56 0.52 0.50 0.50 0.49 0.50 0.49 0.50 0.49 0.49 0.50 0.50 0.52 0.51 0.50 0.50 0.50 0.51 0.51 0.50 0.50 0.50 0.49 0.49 0.48 0.47 0.48 0.50 0.52 0.57 0.58 0.58 0.57 0.58 0.61 0.62 0.59 0.56 0.54 0.53 0.53 0.54 0.55 0.56 0.59 0.66 0.71 0.72 0.75 0.78 0.84 0.89 0.91 0.91 0.95 1.04 1.07 1.06 1.08 1.11 1.06 0.98 0.85 0.78 0.82 0.79 0.80 0.81 0.87 0.96 0.97 0.98 0.95 0.92 0.90 0.89 0.90 0.88 0.85 0.82 0.80
0.59 0.58 0.57 0.55 0.53 0.50 0.49 0.48 0.47 0.47 0.47 0.47 0.47 0.47 0.47 0.47 0.48 0.47 0.47 0.46 0.47 0.49 0.49 0.49 0.48 0.47 0.47 0.47 0.47 0.47 0.48 0.49 0.51 0.53 0.57 0.59 0.58 0.59 0.61 0.62 0.61 0.59 0.57 0.56 0.55 0.54 0.53 0.54 0.57 0.63 0.67 0.68 0.71 0.74 0.78 0.81 0.87 0.90 0.91 0.98 1.06 1.10 1.12 1.10 1.12 1.07 0.96 0.83 0.82 0.84 0.83 0.82 0.86 0.90 0.94 0.89 0.91 0.90 0.91 0.88 0.87 0.85 0.83 0.82 0.81
0.59 0.58 0.56 0.53 0.50 0.48 0.47 0.47 0.46 0.46 0.46 0.45 0.45 0.44 0.44 0.45 0.45 0.45 0.45 0.45 0.45 0.47 0.47 0.47 0.47 0.45 0.45 0.46 0.47 0.48 0.49 0.51 0.52 0.53 0.56 0.60 0.59 0.59 0.60 0.62 0.63 0.63 0.61 0.60 0.57 0.55 0.53 0.53 0.56 0.60 0.63 0.66 0.70 0.74 0.76 0.77 0.83 0.87 0.91 0.95 1.01 1.08 1.12 1.13 1.14 1.11 1.03 0.95 0.86 0.84 0.85 0.82 0.82 0.85 0.89 0.89 0.85 0.84 0.87 0.88 0.87 0.85 0.82 0.79 0.79
0.58 0.55 0.54 0.51 0.49 0.47 0.46 0.45 0.45 0.45 0.43 0.43 0.42 0.42 0.41 0.42 0.41 0.41 0.43 0.43 0.43 0.43 0.44 0.44 0.44 0.44 0.44 0.46 0.47 0.48 0.50 0.50 0.50 0.51 0.55 0.59 0.61 0.60 0.58 0.59 0.61 0.63 0.64 0.63 0.61 0.58 0.56 0.56 0.56 0.59 0.61 0.65 0.68 0.72 0.75 0.77 0.80 0.84 0.91 0.94 1.00 1.04 1.08 1.10 1.10 1.07 1.03 0.98 0.93 0.90 0.86 0.86 0.84 0.80 0.86 0.88 0.86 0.84 0.82 0.81 0.78 0.82 0.83 0.80 0.76
0.56 0.53 0.51 0.49 0.47 0.45 0.44 0.44 0.43 0.42 0.42 0.41 0.41 0.40 0.40 0.40 0.40 0.41 0.41 0.41 0.41 0.42 0.41 0.42 0.42 0.42 0.44 0.47 0.48 0.50 0.50 0.50 0.51 0.52 0.54 0.57 0.58 0.58 0.58 0.58 0.59 0.60 0.61 0.62 0.62 0.59 0.57 0.57 0.58 0.60 0.63 0.66 0.69 0.72 0.77 0.77 0.80 0.80 0.86 0.92 0.96 1.00 1.05 1.07 1.07 1.05 1.02 1.01 0.94 0.90 0.88 0.84 0.85 0.88 0.88 0.86 0.81 0.81 0.83 0.79 0.73 0.75 0.77 0.80 0.80
0.53 0.51 0.49 0.47 0.45 0.43 0.42 0.42 0.42 0.41 0.41 0.40 0.39 0.39 0.39 0.39 0.40 0.39 0.40 0.39 0.39 0.39 0.40 0.41 0.40 0.42 0.45 0.47 0.47 0.48 0.49 0.50 0.53 0.54 0.53 0.54 0.57 0.57 0.59 0.59 0.59 0.58 0.57 0.58 0.59 0.60 0.58 0.57 0.59 0.61 0.65 0.69 0.73 0.75 0.78 0.84 0.84 0.79 0.83 0.89 0.91 0.95 1.01 1.06 1.06 1.04 1.03 1.02 0.96 0.94 0.91 0.87 0.84 0.83 0.82 0.80 0.76 0.74 0.79 0.81 0.77 0.79 0.80 0.78 0.81
0.50 0.48 0.46 0.45 0.44 0.42 0.41 0.41 0.41 0.40 0.39 0.38 0.39 0.40 0.41 0.41 0.41 0.40 0.39 0.39 0.39 0.39 0.40 0.41 0.42 0.43 0.43 0.44 0.44 0.45 0.47 0.51 0.56 0.56 0.56 0.57 0.59 0.60 0.61 0.61 0.60 0.58 0.56 0.56 0.56 0.59 0.60 0.60 0.60 0.61 0.64 0.67 0.69 0.71 0.73 0.76 0.81 0.83 0.83 0.86 0.88 0.91 0.96 1.01 1.03 1.02 1.01 0.98 0.97 0.94 0.90 0.88 0.85 0.85 0.84 0.85 0.85 0.84 0.81 0.80 0.77 0.79 0.80 0.78 0.79
0.47 0.46 0.45 0.44 0.43 0.42 0.41 0.40 0.39 0.38 0.38 0.39 0.40 0.41 0.41 0.41 0.41 0.41 0.40 0.39 0.39 0.40 0.40 0.38 0.40 0.42 0.43 0.42 0.43 0.45 0.48 0.52 0.56 0.57 0.57 0.59 0.60 0.60 0.58 0.57 0.57 0.56 0.56 0.56 0.56 0.57 0.59 0.61 0.62 0.62 0.61 0.61 0.63 0.68 0.71 0.73 0.75 0.78 0.82 0.86 0.89 0.91 0.93 0.96 1.00 1.03 1.00 0.98 0.97 0.96 0.93 0.90 0.90 0.90 0.88 0.90 0.90 0.84 0.81 0.82 0.80 0.79 0.76 0.73 0.69
0.46 0.45 0.44 0.43 0.42 0.42 0.41 0.40 0.38 0.38 0.39 0.40 0.41 0.43 0.43 0.41 0.40 0.41 0.41 0.40 0.40 0.41 0.40 0.39 0.38 0.39 0.40 0.41 0.43 0.45 0.47 0.52 0.56 0.56 0.57 0.59 0.60 0.59 0.57 0.55 0.54 0.55 0.55 0.55 0.56 0.56 0.56 0.58 0.60 0.62 0.61 0.62 0.64 0.66 0.69 0.71 0.73 0.76 0.79 0.83 0.86 0.89 0.96 0.99 0.99 1.01 1.03 0.99 0.95 0.93 0.92 0.92 0.92 0.91 0.90 0.90 0.88 0.87 0.87 0.84 0.80 0.78 0.77 0.76 0.75
0.46 0.44 0.43 0.42 0.42 0.42 0.42 0.42 0.40 0.39 0.39 0.41 0.43 0.44 0.44 0.44 0.42 0.41 0.41 0.42 0.43 0.40 0.39 0.40 0.40 0.40 0.39 0.38 0.41 0.45 0.47 0.52 0.54 0.54 0.55 0.57 0.59 0.58 0.56 0.54 0.52 0.52 0.53 0.54 0.55 0.55 0.54 0.54 0.56 0.59 0.62 0.64 0.65 0.66 0.68 0.69 0.71 0.73 0.77 0.81 0.84 0.87 0.91 0.97 1.03 1.07 1.10 1.04 0.98 0.94 0.94 0.94 0.93 0.93 0.94 0.93 0.93 0.87 0.87 0.84 0.82 0.81 0.81 0.79 0.78
0.45 0.43 0.43 0.43 0.43 0.43 0.43 0.44 0.43 0.41 0.42 0.42 0.43 0.44 0.44 0.44 0.45 0.45 0.45 0.46 0.44 0.42 0.41 0.41 0.41 0.41 0.41 0.41 0.43 0.45 0.45 0.49 0.52 0.52 0.53 0.54 0.54 0.55 0.54 0.53 0.52 0.51 0.52 0.53 0.54 0.54 0.54 0.54 0.55 0.58 0.62 0.64 0.66 0.67 0.69 0.70 0.70 0.71 0.73 0.78 0.82 0.84 0.88 0.93 0.97 1.03 1.11 1.07 1.03 0.97 1.00 1.01 0.96 0.98 0.99 0.99 0.93 0.88 0.86 0.84 0.84 0.82 0.82 0.80 0.84
0.44 0.43 0.43 0.43 0.44 0.44 0.44 0.44 0.43 0.42 0.43 0.43 0.44 0.44 0.44 0.45 0.46 0.47 0.47 0.47 0.46 0.44 0.42 0.42 0.42 0.44 0.44 0.45 0.45 0.44 0.45 0.49 0.51 0.51 0.51 0.50 0.50 0.49 0.50 0.51 0.50 0.49 0.49 0.51 0.52 0.53 0.53 0.55 0.57 0.59 0.62 0.63 0.66 0.68 0.68 0.69 0.69 0.70 0.70 0.73 0.79 0.83 0.85 0.88 0.93 0.98 1.04 1.08 1.06 1.04 1.01 1.03 1.01 1.01 1.02 1.02 0.97 0.95 0.93 0.90 0.88 0.87 0.87 0.90 0.89
0.44 0.44 0.43 0.43 0.44 0.44 0.44 0.44 0.43 0.42 0.42 0.43 0.43 0.43 0.45 0.46 0.46 0.48 0.49 0.49 0.49 0.48 0.47 0.45 0.45 0.45 0.45 0.46 0.46 0.45 0.47 0.51 0.52 0.51 0.50 0.50 0.48 0.47 0.46 0.46 0.45 0.45 0.45 0.46 0.49 0.51 0.52 0.54 0.55 0.57 0.61 0.63 0.65 0.66 0.68 0.70 0.69 0.68 0.68 0.70 0.76 0.81 0.84 0.90 0.94 0.99 1.02 1.06 1.07 1.06 1.04 1.02 1.01 1.01 1.02 1.03 1.02 1.00 0.99 0.97 0.95 0.92 0.86 0.83 0.81
0.44 0.44 0.43 0.44 0.45 0.45 0.45 0.44 0.42 0.41 0.42 0.42 0.42 0.43 0.44 0.45 0.47 0.49 0.48 0.48 0.47 0.47 0.46 0.44 0.45 0.44 0.43 0.44 0.44 0.43 0.45 0.51 0.53 0.54 0.54 0.55 0.54 0.52 0.49 0.47 0.45 0.43 0.42 0.43 0.46 0.48 0.49 0.52 0.56 0.56 0.58 0.60 0.63 0.63 0.66 0.67 0.67 0.68 0.69 0.69 0.72 0.77 0.81 0.87 0.92 0.95 0.99 1.03 1.05 1.07 1.07 1.06 1.03 1.01 0.99 1.00 1.00 1.00 0.96 0.90 0.87 0.88 0.83 0.79 0.81
0.44 0.44 0.45 0.46 0.46 0.46 0.46 0.44 0.42 0.42 0.42 0.42 0.42 0.43 0.45 0.46 0.47 0.49 0.47 0.47 0.47 0.48 0.48 0.46 0.45 0.44 0.42 0.43 0.45 0.42 0.43 0.46 0.49 0.52 0.55 0.57 0.56 0.54 0.52 0.48 0.45 0.43 0.43 0.42 0.44 0.46 0.48 0.51 0.54 0.56 0.56 0.58 0.61 0.62 0.64 0.66 0.64 0.65 0.67 0.67 0.67 0.71 0.78 0.85 0.86 0.91 0.96 1.00 1.01 1.03 1.04 1.05 1.05 1.02 1.00 1.00 1.01 1.02 0.94 0.85 0.88 0.88 0.83 0.82 0.79
0.45 0.46 0.46 0.47 0.48 0.47 0.46 0.45 0.44 0.43 0.43 0.43 0.44 0.44 0.45 0.46 0.48 0.50 0.49 0.49 0.49 0.50 0.49 0.47 0.45 0.45 0.45 0.45 0.45 0.43 0.42 0.44 0.47 0.50 0.52 0.54 0.54 0.53 0.50 0.47 0.44 0.42 0.41 0.39 0.40 0.43 0.46 0.48 0.51 0.54 0.56 0.57 0.58 0.61 0.62 0.64 0.63 0.65 0.66 0.66 0.65 0.67 0.77 0.85 0.85 0.85 0.88 0.91 0.94 0.96 0.98 1.01 1.00 0.97 0.99 1.00 1.00 1.01 1.00 0.96 0.94 0.89 0.84 0.83 0.83
0.48 0.48 0.48 0.48 0.48 0.47 0.47 0.46 0.46 0.45 0.45 0.45 0.46 0.47 0.48 0.49 0.49 0.49 0.49 0.49 0.48 0.48 0.48 0.47 0.45 0.44 0.46 0.46 0.44 0.42 0.40 0.41 0.44 0.48 0.50 0.53 0.53 0.50 0.48 0.43 0.40 0.40 0.40 0.39 0.39 0.39 0.42 0.45 0.48 0.51 0.53 0.54 0.56 0.59 0.61 0.63 0.62 0.63 0.65 0.64 0.65 0.66 0.81 0.84 0.88 0.88 0.86 0.87 0.89 0.91 0.90 0.93 0.94 0.93 0.94 0.97 0.99 0.99 0.99 0.99 0.98 0.94 0.88 0.85 0.83
0.50 0.49 0.49 0.49 0.48 0.48 0.48 0.47 0.46 0.47 0.47 0.46 0.47 0.48 0.49 0.49 0.50 0.50 0.49 0.49 0.49 0.49 0.48 0.47 0.46 0.46 0.47 0.47 0.44 0.42 0.41 0.41 0.42 0.46 0.49 0.51 0.51 0.48 0.47 0.46 0.44 0.42 0.40 0.40 0.40 0.40 0.40 0.42 0.44 0.47 0.50 0.51 0.54 0.58 0.60 0.61 0.62 0.62 0.64 0.65 0.69 0.75 0.81 0.81 0.86 0.90 0.88 0.87 0.87 0.88 0.88 0.88 0.88 0.89 0.89 0.90 0.93 0.97 0.99 0.98 0.98 0.97 0.92 0.86 0.83
0.51 0.51 0.50 0.49 0.49 0.49 0.49 0.49 0.49 0.48 0.48 0.49 0.48 0.48 0.50 0.51 0.51 0.51 0.50 0.50 0.49 0.48 0.48 0.47 0.46 0.45 0.46 0.46 0.43 0.42 0.43 0.43 0.43 0.47 0.51 0.53 0.54 0.52 0.50 0.49 0.50 0.47 0.43 0.41 0.41 0.41 0.42 0.43 0.43 0.45 0.47 0.50 0.53 0.57 0.60 0.61 0.62 0.62 0.64 0.68 0.72 0.76 0.78 0.84 0.86 0.86 0.85 0.85 0.85 0.84 0.85 0.85 0.85 0.85 0.86 0.87 0.89 0.92 0.96 0.97 0.97 0.97 0.97 0.94 0.88
0.52 0.51 0.50 0.49 0.49 0.50 0.51 0.51 0.50 0.50 0.50 0.50 0.50 0.49 0.50 0.51 0.52 0.52 0.51 0.51 0.49 0.47 0.46 0.46 0.45 0.44 0.44 0.44 0.42 0.41 0.42 0.43 0.44 0.46 0.51 0.54 0.54 0.53 0.52 0.51 0.51 0.50 0.47 0.42 0.42 0.42 0.44 0.45 0.45 0.46 0.48 0.50 0.53 0.57 0.60 0.61 0.61 0.62 0.64 0.66 0.69 0.73 0.77 0.80 0.83 0.84 0.83 0.83 0.83 0.81 0.81 0.81 0.81 0.81 0.82 0.83 0.88 0.91 0.94 0.95 0.95 0.96 0.95 0.95 0.94
0.51 0.50 0.50 0.51 0.52 0.53 0.53 0.53 0.53 0.52 0.52 0.52 0.52 0.51 0.51 0.52 0.52 0.52 0.52 0.51 0.48 0.45 0.44 0.44 0.43 0.42 0.41 0.40 0.40 0.41 0.42 0.44 0.45 0.46 0.51 0.53 0.51 0.51 0.51 0.50 0.50 0.50 0.49 0.46 0.45 0.45 0.44 0.45 0.46 0.47 0.49 0.52 0.56 0.57 0.60 0.61 0.61 0.62 0.64 0.66 0.68 0.72 0.74 0.77 0.78 0.80 0.81 0.82 0.81 0.81 0.80 0.81 0.80 0.80 0.81 0.84 0.87 0.90 0.92 0.93 0.93 0.94 0.93 0.92 0.92
0.52 0.51 0.52 0.54 0.54 0.55 0.55 0.54 0.55 0.55 0.55 0.55 0.52 0.51 0.51 0.52 0.51 0.52 0.51 0.47 0.44 0.42 0.42 0.42 0.42 0.41 0.41 0.39 0.40 0.41 0.43 0.43 0.44 0.46 0.49 0.50 0.51 0.50 0.50 0.50 0.50 0.51 0.49 0.48 0.48 0.46 0.45 0.46 0.48 0.49 0.50 0.53 0.56 0.58 0.59 0.60 0.61 0.62 0.64 0.66 0.68 0.70 0.72 0.73 0.75 0.77 0.77 0.78 0.79 0.81 0.82 0.82 0.83 0.85 0.87 0.88 0.90 0.91 0.90 0.91 0.93 0.94 0.93 0.92 0.91
0.53 0.53 0.52 0.52 0.51 0.52 0.52 0.54 0.55 0.56 0.56 0.56 0.54 0.54 0.52 0.51 0.49 0.46 0.42 0.39 0.40 0.41 0.40 0.40 0.40 0.40 0.40 0.40 0.41 0.41 0.42 0.42 0.43 0.45 0.47 0.49 0.50 0.51 0.51 0.51 0.50 0.51 0.51 0.50 0.48 0.45 0.44 0.46 0.48 0.49 0.50 0.53 0.55 0.57 0.57 0.59 0.61 0.62 0.63 0.66 0.67 0.68 0.70 0.72 0.73 0.74 0.74 0.77 0.79 0.79 0.81 0.84 0.85 0.87 0.89 0.89 0.87 0.86 0.86 0.86 0.87 0.87 0.88 0.87 0.85
0.50 0.49 0.49 0.50 0.51 0.51 0.51 0.50 0.49 0.49 0.49 0.50 0.50 0.49 0.48 0.46 0.44 0.39 0.35 0.35 0.36 0.38 0.38 0.38 0.38 0.39 0.39 0.39 0.41 0.41 0.40 0.40 0.42 0.44 0.47 0.48 0.49 0.50 0.50 0.50 0.49 0.49 0.50 0.49 0.47 0.43 0.42 0.46 0.48 0.48 0.50 0.53 0.55 0.56 0.57 0.59 0.61 0.62 0.63 0.65 0.68 0.69 0.70 0.71 0.72 0.72 0.74 0.74 0.76 0.78 0.81 0.84 0.85 0.84 0.83 0.84 0.84 0.85 0.87 0.86 0.84 0.84 0.85 0.84 0.82
0.50 0.50 0.51 0.52 0.51 0.51 0.50 0.50 0.50 0.50 0.50 0.48 0.45 0.44 0.44 0.42 0.38 0.35 0.33 0.35 0.36 0.36 0.38 0.39 0.40 0.40 0.39 0.39 0.39 0.38 0.38 0.39 0.43 0.45 0.45 0.45 0.46 0.48 0.49 0.49 0.48 0.48 0.49 0.48 0.45 0.42 0.42 0.45 0.47 0.48 0.50 0.51 0.53 0.54 0.55 0.57 0.60 0.62 0.63 0.65 0.66 0.69 0.72 0.73 0.74 0.75 0.76 0.78 0.78 0.79 0.80 0.80 0.78 0.78 0.78 0.79 0.81 0.83 0.86 0.84 0.83 0.82 0.83 0.82 0.77
0.51 0.51 0.51 0.51 0.49 0.50 0.50 0.50 0.49 0.45 0.42 0.41 0.42 0.40 0.36 0.32 0.32 0.33 0.37 0.40 0.41 0.41 0.42 0.42 0.43 0.43 0.42 0.40 0.37 0.36 0.37 0.40 0.44 0.46 0.46 0.46 0.46 0.46 0.46 0.47 0.48 0.50 0.51 0.49 0.44 0.42 0.44 0.44 0.44 0.45 0.46 0.47 0.49 0.51 0.52 0.53 0.54 0.60 0.63 0.66 0.66 0.66 0.67 0.69 0.68 0.70 0.74 0.75 0.74 0.74 0.74 0.75 0.74 0.75 0.75 0.75 0.75 0.79 0.84 0.82 0.83 0.81 0.81 0.80 0.76
0.49 0.49 0.49 0.47 0.47 0.47 0.46 0.44 0.41 0.37 0.36 0.34 0.32 0.30 0.31 0.32 0.33 0.34 0.34 0.38 0.42 0.45 0.47 0.44 0.44 0.43 0.41 0.41 0.41 0.39 0.39 0.43 0.46 0.46 0.45 0.45 0.46 0.47 0.48 0.50 0.51 0.52 0.51 0.49 0.46 0.42 0.42 0.41 0.42 0.43 0.44 0.46 0.48 0.50 0.50 0.51 0.51 0.53 0.59 0.66 0.67 0.66 0.66 0.66 0.67 0.68 0.71 0.72 0.74 0.72 0.71 0.71 0.71 0.72 0.72 0.71 0.72 0.75 0.81 0.81 0.79 0.80 0.77 0.75 0.74
0.44 0.44 0.43 0.43 0.43 0.43 0.41 0.37 0.35 0.35 0.36 0.35 0.35 0.33 0.29 0.26 0.28 0.32 0.36 0.38 0.41 0.43 0.45 0.46 0.46 0.46 0.43 0.40 0.42 0.44 0.45 0.45 0.45 0.44 0.44 0.44 0.45 0.47 0.49 0.50 0.51 0.50 0.50 0.48 0.45 0.42 0.42 0.41 0.41 0.42 0.44 0.46 0.48 0.50 0.51 0.51 0.51 0.52 0.55 0.61 0.67 0.67 0.67 0.67 0.67 0.67 0.68 0.69 0.71 0.72 0.71 0.70 0.70 0.71 0.69 0.69 0.69 0.70 0.77 0.80 0.79 0.77 0.74 0.73 0.72
0.42 0.42 0.42 0.42 0.43 0.40 0.38 0.37 0.37 0.37 0.36 0.36 0.35 0.32 0.28 0.24 0.22 0.27 0.35 0.38 0.40 0.43 0.44 0.45 0.47 0.48 0.48 0.46 0.44 0.43 0.44 0.45 0.45 0.44 0.44 0.44 0.45 0.48 0.49 0.50 0.50 0.49 0.50 0.49 0.43 0.41 0.41 0.40 0.40 0.40 0.42 0.43 0.46 0.49 0.50 0.51 0.52 0.53 0.54 0.55 0.61 0.65 0.67 0.66 0.69 0.69 0.67 0.66 0.67 0.70 0.70 0.69 0.70 0.70 0.70 0.69 0.68 0.68 0.71 0.75 0.75 0.74 0.71 0.70 0.69
0.43 0.43 0.43 0.43 0.41 0.39 0.38 0.38 0.38 0.37 0.36 0.34 0.31 0.29 0.25 0.22 0.21 0.21 0.29 0.39 0.44 0.45 0.44 0.44 0.46 0.48 0.48 0.48 0.48 0.46 0.45 0.45 0.45 0.45 0.44 0.44 0.46 0.48 0.50 0.49 0.48 0.49 0.48 0.45 0.42 0.40 0.40 0.40 0.40 0.40 0.40 0.41 0.44 0.46 0.48 0.51 0.52 0.53 0.54 0.53 0.55 0.63 0.68 0.70 0.70 0.69 0.68 0.67 0.66 0.67 0.69 0.69 0.68 0.68 0.69 0.69 0.67 0.66 0.68 0.70 0.74 0.74 0.71 0.67 0.68
0.46 0.44 0.42 0.40 0.38 0.38 0.39 0.39 0.37 0.36 0.34 0.31 0.28 0.25 0.23 0.23 0.23 0.23 0.26 0.32 0.38 0.43 0.46 0.45 0.44 0.44 0.46 0.47 0.46 0.46 0.46 0.47 0.47 0.46 0.45 0.45 0.47 0.49 0.49 0.47 0.47 0.48 0.46 0.43 0.42 0.39 0.39 0.39 0.40 0.41 0.41 0.41 0.42 0.44 0.45 0.48 0.51 0.52 0.53 0.53 0.54 0.58 0.63 0.69 0.69 0.67 0.67 0.66 0.65 0.65 0.67 0.68 0.68 0.66 0.66 0.67 0.67 0.67 0.66 0.67 0.70 0.72 0.70 0.68 0.66
0.41 0.39 0.39 0.38 0.38 0.37 0.37 0.36 0.34 0.31 0.27 0.25 0.24 0.24 0.24 0.26 0.27 0.27 0.28 0.31 0.35 0.38 0.41 0.43 0.45 0.46 0.46 0.47 0.48 0.48 0.48 0.47 0.46 0.46 0.46 0.46 0.48 0.51 0.50 0.46 0.43 0.43 0.44 0.43 0.43 0.41 0.39 0.39 0.39 0.40 0.41 0.40 0.41 0.43 0.44 0.46 0.49 0.50 0.51 0.52 0.54 0.55 0.57 0.61 0.65 0.67 0.67 0.66 0.65 0.64 0.65 0.66 0.67 0.68 0.67 0.65 0.65 0.65 0.64 0.65 0.66 0.69 0.69 0.68 0.68
0.37 0.38 0.38 0.37 0.35 0.34 0.32 0.30 0.27 0.24 0.24 0.26 0.29 0.29 0.30 0.30 0.30 0.32 0.33 0.35 0.37 0.38 0.42 0.44 0.45 0.46 0.48 0.49 0.50 0.51 0.50 0.49 0.46 0.45 0.45 0.46 0.49 0.51 0.46 0.44 0.43 0.43 0.41 0.41 0.42 0.42 0.42 0.40 0.38 0.38 0.39 0.39 0.40 0.40 0.42 0.43 0.45 0.47 0.50 0.52 0.53 0.54 0.54 0.56 0.59 0.63 0.66 0.66 0.66 0.66 0.66 0.67 0.68 0.67 0.69 0.68 0.65 0.64 0.65 0.64 0.65 0.65 0.66 0.66 0.68
0.35 0.35 0.34 0.33 0.31 0.29 0.27 0.25 0.27 0.30 0.32 0.33 0.33 0.33 0.34 0.34 0.35 0.36 0.37 0.38 0.38 0.39 0.41 0.43 0.45 0.45 0.46 0.47 0.48 0.49 0.49 0.49 0.47 0.45 0.45 0.47 0.49 0.50 0.48 0.47 0.45 0.44 0.43 0.42 0.42 0.42 0.41 0.41 0.41 0.41 0.41 0.39 0.39 0.39 0.40 0.40 0.42 0.43 0.46 0.49 0.51 0.52 0.53 0.54 0.56 0.60 0.62 0.64 0.65 0.64 0.63 0.63 0.66 0.67 0.67 0.66 0.65 0.64 0.64 0.64 0.65 0.63 0.64 0.65 0.64
0.33 0.31 0.30 0.28 0.26 0.27 0.30 0.32 0.35 0.36 0.36 0.36 0.36 0.36 0.36 0.36 0.37 0.38 0.38 0.38 0.39 0.39 0.40 0.42 0.44 0.44 0.42 0.41 0.46 0.46 0.46 0.47 0.47 0.45 0.46 0.47 0.48 0.48 0.47 0.46 0.45 0.43 0.43 0.44 0.44 0.43 0.43 0.43 0.44 0.43 0.43 0.42 0.40 0.40 0.40 0.40 0.40 0.41 0.42 0.44 0.47 0.48 0.51 0.53 0.55 0.57 0.60 0.62 0.64 0.64 0.63 0.62 0.64 0.65 0.66 0.65 0.64 0.62 0.62 0.64 0.64 0.62 0.61 0.61 0.61
0.30 0.28 0.27 0.29 0.33 0.35 0.36 0.36 0.36 0.36 0.36 0.36 0.37 0.37 0.37 0.37 0.38 0.38 0.38 0.38 0.38 0.39 0.40 0.42 0.44 0.45 0.46 0.49 0.49 0.48 0.45 0.43 0.42 0.41 0.42 0.45 0.46 0.46 0.45 0.45 0.45 0.45 0.46 0.46 0.46 0.46 0.46 0.46 0.46 0.45 0.44 0.43 0.42 0.42 0.42 0.41 0.41 0.41 0.41 0.41 0.42 0.44 0.46 0.48 0.51 0.54 0.56 0.59 0.61 0.64 0.65 0.65 0.65 0.65 0.65 0.65 0.65 0.63 0.63 0.64 0.65 0.64 0.61 0.59 0.59
0.28 0.31 0.35 0.36 0.37 0.37 0.37 0.37 0.37 0.37 0.37 0.36 0.37 0.37 0.37 0.37 0.38 0.38 0.38 0.38 0.39 0.39 0.39 0.40 0.44 0.49 0.52 0.54 0.53 0.53 0.47 0.46 0.43 0.43 0.44 0.46 0.46 0.46 0.44 0.42 0.43 0.44 0.46 0.48 0.48 0.48 0.48 0.47 0.46 0.45 0.44 0.43 0.42 0.41 0.42 0.41 0.41 0.41 0.39 0.38 0.38 0.39 0.41 0.44 0.47 0.49 0.52 0.55 0.57 0.60 0.62 0.64 0.66 0.67 0.66 0.65 0.66 0.66 0.64 0.63 0.63 0.64 0.64 0.62 0.62
0.35 0.37 0.38 0.38 0.38 0.38 0.38 0.38 0.37 0.37 0.36 0.37 0.37 0.37 0.36 0.36 0.36 0.37 0.37 0.38 0.39 0.40 0.40 0.41 0.42 0.46 0.49 0.51 0.53 0.54 0.53 0.51 0.50 0.48 0.49 0.49 0.49 0.47 0.44 0.42 0.41 0.42 0.45 0.48 0.49 0.49 0.48 0.47 0.46 0.45 0.43 0.42 0.41 0.39 0.39 0.39 0.40 0.39 0.37 0.37 0.36 0.36 0.38 0.41 0.46 0.49 0.51 0.52 0.54 0.56 0.59 0.61 0.63 0.65 0.64 0.66 0.68 0.68 0.67 0.67 0.67 0.67 0.67 0.66 0.64
0.39 0.38 0.38 0.38 0.38 0.38 0.37 0.36 0.36 0.36 0.37 0.36 0.35 0.35 0.35 0.35 0.36 0.36 0.36 0.36 0.37 0.37 0.38 0.39 0.41 0.43 0.46 0.49 0.51 0.53 0.53 0.53 0.54 0.54 0.54 0.53 0.51 0.50 0.49 0.45 0.43 0.42 0.43 0.45 0.48 0.48 0.49 0.48 0.46 0.45 0.43 0.42 0.40 0.38 0.36 0.35 0.35 0.35 0.37 0.38 0.37 0.36 0.35 0.39 0.43 0.47 0.50 0.51 0.52 0.53 0.55 0.58 0.60 0.61 0.64 0.66 0.66 0.66 0.67 0.68 0.68 0.68 0.67 0.67 0.67
0.40 0.39 0.39 0.38 0.38 0.37 0.36 0.36 0.37 0.37 0.36 0.36 0.36 0.36 0.35 0.34 0.34 0.34 0.33 0.33 0.33 0.33 0.33 0.33 0.33 0.35 0.37 0.40 0.45 0.49 0.50 0.50 0.51 0.52 0.54 0.55 0.54 0.53 0.51 0.49 0.48 0.45 0.45 0.46 0.48 0.50 0.50 0.49 0.48 0.47 0.45 0.42 0.40 0.37 0.35 0.34 0.33 0.33 0.35 0.38 0.39 0.38 0.36 0.37 0.40 0.44 0.47 0.50 0.52 0.53 0.54 0.54 0.54 0.56 0.59 0.62 0.64 0.65 0.65 0.66 0.66 0.66 0.66 0.66 0.65
0.39 0.38 0.38 0.38 0.38 0.37 0.37 0.37 0.37 0.37 0.37 0.36 0.35 0.34 0.33 0.32 0.31 0.31 0.31 0.30 0.30 0.30 0.30 0.30 0.30 0.30 0.31 0.34 0.36 0.38 0.41 0.45 0.48 0.50 0.52 0.53 0.54 0.54 0.53 0.53 0.52 0.50 0.49 0.48 0.48 0.48 0.49 0.49 0.49 0.48 0.47 0.44 0.42 0.40 0.37 0.35 0.33 0.32 0.32 0.35 0.37 0.38 0.37 0.37 0.37 0.39 0.43 0.46 0.49 0.51 0.53 0.55 0.56 0.55 0.54 0.56 0.59 0.61 0.63 0.64 0.64 0.64 0.65 0.65 0.64
0.39 0.39 0.39 0.38 0.39 0.38 0.38 0.38 0.38 0.37 0.36 0.34 0.32 0.31 0.31 0.29 0.29 0.29 0.28 0.27 0.27 0.27 0.28 0.29 0.29 0.30 0.30 0.31 0.33 0.34 0.37 0.40 0.43 0.45 0.48 0.51 0.53 0.54 0.55 0.54 0.53 0.52 0.50 0.50 0.49 0.49 0.49 0.50 0.51 0.50 0.48 0.47 0.45 0.42 0.39 0.36 0.34 0.32 0.33 0.33 0.34 0.35 0.35 0.39 0.41 0.41 0.42 0.43 0.46 0.48 0.50 0.52 0.54 0.55 0.55 0.54 0.55 0.57 0.59 0.61 0.62 0.62 0.62 0.63 0.63
0.40 0.40 0.40 0.40 0.39 0.39 0.38 0.37 0.37 0.36 0.34 0.32 0.30 0.29 0.28 0.27 0.26 0.26 0.25 0.25 0.25 0.26 0.27 0.28 0.28 0.29 0.31 0.32 0.34 0.35 0.36 0.38 0.40 0.42 0.45 0.48 0.51 0.53 0.54 0.55 0.54 0.52 0.51 0.50 0.50 0.49 0.49 0.50 0.50 0.49 0.48 0.47 0.46 0.43 0.40 0.37 0.36 0.35 0.34 0.34 0.34 0.35 0.35 0.37 0.40 0.41 0.43 0.43 0.42 0.44 0.47 0.49 0.51 0.54 0.55 0.55 0.55 0.55 0.55 0.57 0.60 0.61 0.62 0.61 0.62
0.42 0.42 0.41 0.41 0.40 0.39 0.38 0.37 0.36 0.34 0.32 0.29 0.27 0.26 0.25 0.24 0.23 0.23 0.23 0.24 0.24 0.25 0.26 0.26 0.26 0.27 0.28 0.30 0.32 0.34 0.35 0.37 0.38 0.40 0.42 0.46 0.50 0.53 0.55 0.55 0.54 0.53 0.52 0.52 0.51 0.49 0.49 0.50 0.51 0.48 0.47 0.46 0.45 0.42 0.39 0.37 0.35 0.34 0.33 0.33 0.34 0.35 0.35 0.36 0.37 0.37 0.39 0.42 0.42 0.40 0.41 0.44 0.47 0.51 0.53 0.55 0.55 0.56 0.55 0.54 0.55 0.56 0.59 0.60 0.61
0.43 0.43 0.42 0.41 0.40 0.38 0.37 0.35 0.33 0.30 0.28 0.25 0.23 0.22 0.21 0.20 0.20 0.21 0.22 0.22 0.23 0.25 0.25 0.25 0.25 0.26 0.27 0.29 0.30 0.32 0.34 0.36 0.38 0.39 0.42 0.43 0.47 0.52 0.54 0.54 0.54 0.52 0.52 0.52 0.51 0.50 0.49 0.50 0.51 0.50 0.48 0.47 0.46 0.43 0.40 0.38 0.36 0.35 0.35 0.34 0.33 0.34 0.34 0.35 0.36 0.36 0.37 0.38 0.38 0.39 0.42 0.44 0.45 0.47 0.50 0.52 0.53 0.55 0.54 0.54 0.54 0.55 0.56 0.57 0.58
0.44 0.43 0.41 0.39 0.37 0.36 0.33 0.31 0.27 0.24 0.22 0.21 0.20 0.19 0.18 0.19 0.20 0.20 0.21 0.22 0.23 0.24 0.25 0.25 0.26 0.27 0.27 0.29 0.30 0.32 0.34 0.35 0.36 0.38 0.41 0.42 0.45 0.49 0.52 0.53 0.52 0.52 0.50 0.50 0.50 0.50 0.50 0.50 0.49 0.49 0.49 0.48 0.46 0.44 0.41 0.38 0.36 0.37 0.37 0.35 0.34 0.32 0.32 0.32 0.34 0.35 0.36 0.38 0.38 0.38 0.38 0.39 0.39 0.42 0.46 0.49 0.51 0.53 0.54 0.55 0.55 0.53 0.53 0.54 0.55
0.42 0.40 0.37 0.35 0.32 0.29 0.26 0.23 0.21 0.20 0.20 0.19 0.19 0.19 0.20 0.20 0.20 0.21 0.22 0.22 0.23 0.24 0.26 0.27 0.28 0.29 0.29 0.30 0.31 0.33 0.34 0.36 0.37 0.38 0.42 0.44 0.45 0.48 0.51 0.51 0.50 0.50 0.49 0.49 0.49 0.49 0.49 0.49 0.48 0.47 0.46 0.46 0.45 0.44 0.42 0.41 0.39 0.38 0.37 0.35 0.33 0.30 0.30 0.30 0.32 0.34 0.35 0.37 0.38 0.39 0.40 0.40 0.39 0.40 0.43 0.46 0.49 0.50 0.52 0.53 0.54 0.55 0.54 0.52 0.52
0.37 0.33 0.29 0.26 0.22 0.21 0.20 0.19 0.19 0.19 0.20 0.20 0.20 0.20 0.21 0.21 0.22 0.23 0.24 0.24 0.25 0.26 0.27 0.28 0.29 0.29 0.30 0.32 0.33 0.34 0.35 0.37 0.38 0.40 0.43 0.45 0.46 0.48 0.49 0.49 0.49 0.49 0.49 0.49 0.49 0.50 0.50 0.49 0.48 0.46 0.46 0.46 0.46 0.46 0.44 0.42 0.40 0.39 0.36 0.33 0.30 0.29 0.29 0.30 0.31 0.33 0.34 0.35 0.37 0.38 0.38 0.37 0.36 0.37 0.40 0.43 0.45 0.47 0.48 0.50 0.52 0.52 0.53 0.53 0.52
Wind_Speed
19 20 21 21 22 23 23 23 23 23 23 23 23 23 23 23 24 24 24 24 24 24 24 25 25 25 26 26 26 26 26 26 26 25 25 26 26 26 26 26 26 26 25 25 25 25 25 26 26 28 30 32 33 33 34 35 35 36 38 39 39 37 36 35 34 33 32 30 29 28 28 29 29 28 27 25 24 22 21 20 20 19 18 17 17
19 20 21 21 22 23 23 23 23 23 23 23 23 23 24 24 24 24 24 24 24 24 24 25 26 26 26 26 27 27 27 27 26 26 26 27 27 27 27 27 27 26 26 26 26 26 26 26 26 27 28 30 32 33 33 34 35 35 36 38 39 40 38 37 35 34 34 33 31 29 29 30 30 30 29 27 25 24 23 22 21 20 19 18 17
19 20 21 22 22 22 23 23 24 24 24 24 24 24 24 24 24 23 23 23 24 24 25 25 26 27 27 27 28 28 28 28 27 27 27 27 27 27 28 27 27 27 27 27 27 27 27 27 27 27 27 28 30 32 33 34 35 35 36 37 39 41 41 39 37 36 35 35 33 31 30 31 31 31 31 29 27 25 24 23 22 21 20 19 18
20 21 21 22 22 23 23 24 24 24 24 24 24 24 24 24 24 23 24 24 24 25 26 26 27 28 28 29 29 29 29 29 28 28 28 28 28 28 28 28 28 28 28 28 27 27 28 27 27 27 27 28 29 30 32 33 34 35 36 36 37 40 42 41 39 37 37 36 35 33 32 31 31 32 32 30 28 27 25 24 23 22 21 20 19
20 20 21 21 22 23 24 24 24 24 24 24 24 24 25 25 25 25 25 26 26 26 27 28 29 29 30 30 30 30 30 30 30 29 29 29 30 29 29 29 29 29 29 29 29 28 28 28 28 28 28 28 28 29 31 33 33 34 35 36 36 38 40 42 41 38 37 38 37 35 34 33 32 33 33 32 30 28 26 25 24 23 22 21 21
19 20 21 21 23 24 24 24 24 24 24 24 24 25 26 26 26 27 27 27 28 28 29 29 30 31 32 32 31 31 31 31 32 31 31 30 30 31 30 30 30 30 29 29 30 30 29 29 29 28 28 28 28 28 30 32 33 33 34 35 36 36 38 41 42 40 39 39 38 37 35 34 33 34 34 33 32 30 28 26 25 24 24 23 22
20 20 21 22 23 24 24 23 23 23 24 24 25 26 27 27 28 28 28 29 29 29 30 31 31 32 32 32 32 33 33 33 33 32 32 31 31 31 32 32 31 31 30 30 30 30 30 30 29 29 28 29 28 28 29 31 32 33 33 34 35 36 37 39 41 41 40 40 40 39 38 36 35 35 35 34 33 32 30 27 26 25 25 24 24
19 20 21 22 23 23 23 23 23 24 24 25 26 27 27 28 29 29 29 29 30 30 31 32 32 32 32 32 33 33 33 33 33 32 32 32 32 32 32 32 32 32 31 31 31 30 30 30 30 29 29 29 29 29 29 30 32 33 33 33 34 35 35 36 38 41 41 41 41 41 40 38 37 36 35 35 34 33 31 29 28 27 27 26 25
19 20 21 22 22 22 23 23 23 24 25 26 26 27 28 29 30 30 30 30 31 31 32 32 32 32 32 33 33 34 33 33 32 31 31 31 31 32 32 32 32 32 31 31 31 30 30 29 29 29 29 30 29 29 29 29 30 32 33 33 34 35 34 34 35 37 40 41 41 41 41 40 39 37 36 36 35 33 32 30 29 29 28 27 26
19 19 20 20 21 22 23 23 24 24 25 26 26 27 28 29 30 31 31 31 32 32 33 33 32 32 33 34 34 34 32 31 30 30 30 30 30 30 30 30 30 30 30 30 30 29 29 29 29 29 29 30 30 29 29 29 29 31 32 33 34 35 34 34 34 34 37 40 41 40 40 40 40 39 38 37 36 35 34 32 30 29 28 27 26
18 19 19 19 20 22 23 23 24 24 25 26 27 28 29 30 30 31 31 32 32 33 33 33 33 33 34 34 34 33 31 29 28 28 27 27 27 26 26 27 27 27 28 28 28 28 28 28 28 28 28 29 29 29 29 28 29 30 31 32 33 34 35 35 34 33 34 37 39 39 40 40 40 40 39 37 36 36 35 34 32 30 29 28 27
17 18 18 19 21 22 22 23 24 24 24 25 27 28 29 30 31 32 32 32 33 34 34 34 34 34 34 34 34 32 30 28 27 26 26 25 25 24 24 24 25 25 25 26 26 26 27 27 27 27 27 27 28 28 28 28 28 29 30 31 31 32 33 34 34 33 34 35 37 38 39 39 40 40 40 38 37 36 36 35 34 32 31 30 29
17 17 18 20 21 22 23 23 24 24 25 26 27 28 29 30 31 31 32 33 33 34 34 34 34 34 34 35 34 32 29 27 26 25 25 25 25 24 24 24 24 24 24 25 25 25 25 26 26 26 26 27 27 26 27 27 27 28 29 31 31 31 32 33 33 33 34 35 36 37 37 37 38 39 39 39 38 37 36 36 35 34 33 32 31
17 18 19 20 21 22 23 24 24 25 26 26 27 28 29 30 31 31 32 33 34 34 34 34 34 34 34 34 34 31 29 27 26 25 25 25 24 24 23 23 24 24 24 24 24 25 25 25 25 25 25 26 25 25 26 26 26 27 28 30 31 31 31 31 31 32 33 34 35 35 35 35 36 37 38 38 38 38 37 36 35 34 34 33 33
18 19 20 21 22 22 23 24 25 25 26 27 28 28 29 30 31 32 32 33 34 34 34 34 34 35 35 34 33 32 29 28 26 25 25 24 25 24 24 24 24 24 24 24 24 24 24 24 24 25 25 25 25 25 25 25 25 26 28 29 30 31 30 30 30 31 32 33 34 35 35 34 34 35 36 37 38 37 37 36 35 35 34 33 32
18 19 21 22 22 23 23 24 25 26 27 27 28 29 30 31 32 32 33 33 34 34 34 34 35 36 36 35 33 32 30 28 27 26 26 25 26 25 25 24 24 25 25 25 24 24 24 23 24 24 25 25 25 24 24 24 25 25 27 29 30 30 30 29 29 29 29 30 32 34 34 34 34 34 34 35 36 36 36 35 35 35 34 32 31
19 21 22 23 23 23 24 25 26 27 27 28 28 29 30 31 32 32 33 34 35 35 35 35 35 36 36 35 33 32 31 29 27 27 27 27 27 27 26 26 26 25 25 25 25 24 23 23 23 23 24 24 24 24 24 24 24 24 25 27 29 30 29 28 29 29 28 28 30 32 32 32 33 33 33 34 35 35 35 35 35 35 34 33 32
20 22 23 23 24 24 25 25 26 27 28 29 29 30 31 32 32 33 33 34 35 36 36 36 36 36 37 35 33 32 31 30 28 28 28 28 28 28 28 28 27 27 26 26 25 24 23 23 23 23 23 24 24 24 24 23 23 24 25 26 27 29 29 29 29 30 30 29 28 30 32 32 32 32 32 32 33 35 36 36 36 35 35 34 33
22 23 24 24 24 25 25 26 27 28 29 30 31 31 32 33 33 34 34 35 36 36 37 37 37 37 37 35 33 32 32 31 30 29 29 28 28 28 29 29 28 28 27 27 26 25 24 23 23 23 23 23 23 23 23 23 23 24 24 25 25 27 29 30 30 30 31 32 30 29 31 32 32 31 31 32 33 34 36 37 37 36 35 34 33
23 23 24 25 25 26 27 28 29 30 31 32 32 33 33 34 34 35 35 36 37 37 38 38 38 38 37 35 34 33 33 33 32 31 30 29 29 29 29 29 28 28 28 27 26 25 25 24 23 23 23 23 23 23 23 22 23 23 24 24 25 25 27 29 31 30 30 32 32 32 32 33 33 32 32 31 31 32 34 36 37 36 35 34 33
23 24 25 26 27 28 28 29 30 31 32 33 33 34 34 35 35 36 37 37 38 38 39 39 38 38 37 35 34 34 34 34 33 32 30 29 29 28 28 28 28 28 27 26 25 25 25 24 23 23 23 23 23 23 22 22 22 23 23 24 24 25 26 27 30 30 30 30 32 33 34 34 34 35 34 33 33 32 33 34 36 36 36 35 34
24 25 26 27 28 29 30 31 32 33 33 34 34 35 35 36 36 37 38 38 39 39 40 40 39 38 37 35 34 34 34 34 34 32 30 30 30 29 28 28 27 27 26 26 25 24 24 24 24 23 23 22 22 22 22 22 22 22 23 23 23 24 25 26 27 28 28 29 30 32 34 34 35 35 35 36 35 35 34 34 35 37 37 37 36
25 26 27 28 29 30 31 32 33 34 35 36 36 36 36 37 37 38 39 39 40 40 40 40 39 38 37 35 34 34 34 34 34 32 32 32 31 30 29 28 27 26 25 25 24 24 24 24 24 24 23 22 22 22 21 21 21 21 22 22 23 23 24 26 26 25 26 26 27 29 32 33 34 34 35 35 36 36 35 34 34 35 36 36 36
26 27 29 30 31 32 33 34 34 35 36 36 36 37 37 37 38 39 40 40 41 41 40 39 39 38 37 35 35 35 35 34 34 33 33 33 31 30 28 28 27 26 25 24 24 23 23 23 24 24 23 21 21 21 21 20 20 20 21 21 22 22 23 24 25 25 25 25 25 26 28 31 32 32 34 35 35 35 35 34 33 33 34 34 34
28 29 30 31 32 32 33 34 35 35 36 36 37 37 38 38 39 40 40 41 40 40 39 38 38 37 37 36 36 36 35 34 34 34 34 33 31 29 28 26 26 25 25 24 23 23 23 23 23 23 22 20 20 20 20 19 19 19 20 20 20 21 21 22 23 24 24 24 23 22 24 26 28 28 29 32 34 35 35 35 33 32 32 33 33
29 29 30 31 31 32 33 34 35 36 36 37 37 37 38 38 39 40 40 40 39 38 38 37 37 37 37 37 36 36 35 34 34 35 34 32 31 29 27 26 25 25 24 24 23 23 23 23 22 22 21 20 19 19 19 18 18 18 19 19 20 20 21 22 23 23 22 22 21 20 21 23 24 25 25 28 31 34 35 36 34 33 33 33 33
28 29 30 31 31 32 34 35 36 37 37 36 36 37 38 39 40 40 40 39 38 38 37 37 38 38 38 37 37 36 35 34 35 35 34 32 31 29 27 25 24 25 24 24 23 22 22 21 21 21 20 19 19 18 18 18 17 17 17 18 19 20 21 22 23 23 22 21 21 20 20 20 22 23 24 25 27 30 33 35 34 34 34 33 32
29 30 31 32 33 34 35 36 36 36 36 36 37 38 38 39 39 39 39 38 38 38 38 38 39 39 39 37 36 35 35 34 35 35 34 32 30 29 27 25 24 24 24 23 22 21 20 20 20 20 19 18 18 17 16 16 16 16 16 17 18 19 20 21 23 24 22 22 22 21 19 19 19 20 22 24 25 28 31 32 33 33 33 32 31
31 32 33 34 34 35 35 35 36 36 36 36 37 38 39 39 39 39 38 38 38 39 39 39 39 39 38 37 36 35 35 35 35 34 33 32 30 28 26 24 23 24 23 22 21 20 19 18 18 18 18 18 17 16 15 15 15 15 15 15 16 18 19 20 22 24 23 23 23 22 21 20 19 18 20 22 24 26 28 31 32 32 32 32 31
32 33 34 35 35 35 35 35 35 36 36 37 38 39 39 39 39 39 38 38 39 39 39 39 39 38 38 37 36 36 36 36 35 34 33 32 30 27 26 24 24 23 23 21 20 18 18 18 18 18 18 18 17 15 15 14 14 14 15 15 15 16 18 19 21 23 24 23 23 23 23 22 21 20 19 20 21 23 26 29 31 32 32 31 30
33 34 35 35 35 34 34 35 36 36 37 38 39 40 41 41 40 39 39 39 39 39 39 39 39 38 37 37 37 36 36 36 35 34 33 32 30 27 26 25 23 22 21 20 19 18 17 17 18 18 18 18 17 15 14 14 14 13 14 15 15 16 17 18 19 21 23 23 23 23 23 23 23 22 21 20 20 21 23 27 30 31 31 31 31
34 35 35 35 34 34 34 35 36 37 38 39 40 41 42 42 42 41 40 40 40 40 40 40 39 38 38 37 37 37 36 35 34 34 33 32 29 27 26 25 23 22 20 19 18 18 17 17 18 18 18 17 16 15 14 14 14 13 13 14 15 15 16 18 19 20 22 23 23 22 22 23 23 23 22 22 20 20 22 25 28 30 31 32 32
34 35 34 34 34 34 35 37 38 39 40 41 42 42 43 43 43 42 41 40 40 40 40 39 39 39 38 37 37 37 37 36 35 34 33 31 29 28 26 24 22 21 20 19 19 18 18 18 18 18 17 17 15 14 14 13 13 13 13 13 14 15 16 17 18 20 21 22 22 22 22 22 23 23 23 23 22 21 21 23 26 29 31 32 32
34 34 33 34 34 36 37 38 39 40 41 42 43 43 44 44 44 43 42 41 41 40 39 39 39 38 38 38 38 38 37 36 35 34 33 32 29 27 26 24 22 21 20 20 19 19 18 18 18 17 17 16 15 14 13 13 13 13 13 13 14 15 15 16 18 20 21 21 22 23 23 23 23 23 23 24 24 23 22 22 24 27 30 31 31
33 33 34 35 36 37 38 39 40 41 42 43 43 43 44 44 43 43 42 42 42 41 41 40 39 39 39 39 38 38 38 37 35 34 33 32 29 27 26 24 23 22 21 20 20 19 18 18 17 17 16 15 14 13 13 13 13 13 13 14 14 14 15 16 17 19 21 22 22 22 23 24 24 23 23 24 25 24 23 22 23 25 27 29 30
33 34 35 36 37 38 39 40 41 42 42 42 43 43 43 43 43 43 43 42 42 43 42 42 41 40 40 40 40 39 38 37 35 34 33 31 29 27 25 24 23 23 22 21 20 19 18 17 16 15 15 14 13 13 12 12 12 13 13 14 14 14 15 15 16 17 20 21 22 22 22 22 23 23 22 22 24 25 24 23 23 25 26 27 28
34 35 36 37 39 40 40 40 41 41 42 42 43 43 43 44 44 44 44 44 44 44 43 43 42 42 41 41 41 40 38 37 35 34 32 30 28 27 25 24 23 23 22 21 20 18 17 15 15 14 13 13 13 12 12 12 12 13 13 14 14 15 15 15 16 16 17 19 21 22 22 22 23 23 23 22 22 24 26 25 24 25 25 26 27
35 36 37 39 39 40 40 40 40 41 42 42 43 44 44 45 45 45 45 45 45 45 45 44 44 43 43 43 42 40 39 37 35 34 32 29 28 26 25 24 23 23 22 21 19 17 16 15 14 13 13 13 12 12 12 12 12 13 13 13 14 15 15 15 15 16 16 17 18 20 22 23 24 25 25 24 23 23 25 26 25 25 25 25 26
36 37 38 39 39 39 39 40 41 42 42 43 44 45 45 45 46 46 46 46 46 46 46 46 45 45 44 44 43 41 39 37 35 33 32 30 28 26 25 24 22 22 21 20 19 17 16 15 15 14 13 13 13 12 12 12 12 12 13 13 14 14 15 15 15 15 16 17 17 18 19 21 23 24 25 25 24 24 25 25 25 25 25 25 25
36 37 38 38 39 39 40 40 41 42 43 44 45 45 46 46 46 47 47 47 47 47 47 47 46 46 45 45 44 42 40 38 36 33 31 30 28 26 24 23 22 21 20 19 18 18 17 16 16 15 14 14 13 13 13 13 13 13 13 13 14 14 15 15 15 15 16 17 17 18 18 19 20 22 23 24 24 24 24 25 25 25 25 24 24
36 37 38 38 39 40 41 41 43 44 44 45 45 45 46 46 47 47 48 48 48 48 48 47 47 46 46 46 45 43 41 39 37 35 32 30 28 26 24 22 21 20 19 18 18 18 18 17 17 16 15 15 14 14 14 14 13 13 13 14 14 14 15 15 15 15 15 16 17 18 18 18 18 19 20 22 23 23 24 25 25 25 25 25 25
36 37 38 39 40 41 42 43 43 44 44 44 45 46 46 47 47 48 48 49 50 50 50 50 49 48 48 47 46 44 41 38 36 35 33 31 29 26 24 21 20 19 19 18 18 18 18 18 17 17 16 15 14 14 14 14 14 14 13 13 14 14 15 15 16 16 16 16 16 17 18 19 19 19 19 20 21 22 23 25 25 25 26 26 26
37 38 39 40 41 42 43 43 44 44 44 45 46 47 48 48 49 50 50 51 52 52 52 52 52 51 49 48 47 44 41 39 36 34 32 31 29 28 25 22 20 19 18 18 18 18 18 18 17 17 17 16 15 15 14 14 14 13 13 13 13 14 15 15 16 16 16 17 17 17 18 19 20 20 20 21 21 21 22 23 24 25 26 26 26
38 39 40 40 41 42 43 44 44 44 45 46 47 48 49 50 51 52 52 53 53 54 53 53 53 52 50 49 47 44 42 40 37 35 33 31 29 28 26 24 22 20 18 18 18 18 18 17 17 17 17 17 16 15 15 14 14 14 14 13 13 14 15 15 16 17 17 17 18 18 18 19 19 20 21 22 22 22 22 22 22 23 24 25 27
38 39 40 41 42 43 44 44 45 45 47 48 49 50 51 52 53 53 54 54 54 54 54 53 53 52 51 49 47 44 42 39 37 35 33 31 29 27 26 25 23 21 19 18 17 17 18 17 17 17 16 16 16 16 15 14 13 13 14 14 13 14 14 15 16 17 18 18 18 19 19 19 19 20 21 22 22 23 24 23 23 23 24 25 26
39 40 41 42 43 44 44 45 46 47 48 49 50 51 52 53 54 54 54 54 54 54 54 53 53 52 51 49 46 43 41 38 35 33 32 30 27 25 24 24 23 21 19 18 17 16 16 17 17 17 16 16 16 15 14 14 13 13 13 13 13 14 14 15 16 17 17 18 19 19 20 20 20 20 21 22 23 23 23 24 25 25 25 25 26
39 41 42 43 43 44 45 46 47 48 49 50 51 52 53 54 54 55 55 55 55 54 54 53 53 52 50 48 46 42 39 36 34 31 30 28 26 23 21 22 22 20 19 18 16 16 15 15 16 16 16 15 15 15 14 14 14 14 14 14 14 14 14 15 15 16 17 18 18 19 20 21 21 21 21 22 23 24 24 24 25 26 26 26 26
40 41 42 43 44 45 46 47 49 50 51 52 52 53 54 54 55 55 55 55 55 54 54 53 53 51 50 48 44 41 38 35 32 30 28 26 23 21 20 20 20 19 18 17 16 15 15 15 15 15 14 14 15 14 14 15 14 14 14 14 14 14 15 15 15 16 17 18 18 19 20 21 21 22 22 22 23 24 25 25 25 26 27 26 26
41 42 43 44 45 46 47 48 50 51 51 52 53 53 54 54 54 55 55 55 54 54 53 53 52 51 49 46 42 38 35 33 30 28 25 22 20 18 18 18 19 18 18 17 16 15 15 14 14 14 14 14 14 14 14 14 15 14 14 13 13 13 14 15 15 16 16 17 18 19 19 20 21 22 22 23 23 24 25 25 26 27 27 27 27
42 43 44 45 46 47 48 49 50 50 51 51 52 53 53 54 54 54 54 54 53 53 53 52 51 50 47 44 40 36 34 31 28 24 21 17 15 15 14 15 16 16 16 16 16 15 14 14 14 14 13 13 13 13 13 14 14 14 14 13 13 13 13 14 14 15 16 16 17 17 18 19 20 21 22 22 23 24 24 25 25 26 27 28 28
43 44 45 46 46 47 48 48 49 50 50 51 52 52 53 53 53 53 53 53 53 53 52 52 50 48 45 42 38 34 31 28 24 20 15 12 11 11 11 12 14 14 15 15 15 15 14 14 13 13 13 12 12 12 13 13 13 14 14 14 14 13 13 13 14 15 15 16 16 17 17 18 19 20 20 21 22 23 24 25 25 26 27 27 28
Wind_Direction
335 335 335 335 335 336 336 335 334 334 333 332 331 329 327 325 323 322 320 319 318 317 316 315 313 312 310 309 308 306 304 303 301 298 297 298 297 296 296 296 295 294 292 290 289 288 287 285 281 276 270 265 260 257 255 254 253 250 248 247 246 245 246 246 246 246 245 245 243 240 238 237 237 237 236 235 233 233 235 236 236 237 237 238 240
335 335 336 336 337 338 339 338 338 338 337 336 335 333 331 329 327 326 324 323 322 320 319 317 316 315 314 312 310 308 305 303 301 299 298 298 297 295 295 294 293 292 292 290 288 287 286 285 283 280 276 269 263 259 256 255 253 251 249 248 246 244 243 244 244 244 244 244 242 239 237 235 236 235 235 234 233 233 235 236 236 236 237 238 239
335 337 338 340 341 342 342 341 341 341 341 339 337 336 335 333 332 330 328 326 325 323 321 320 319 318 316 314 312 310 307 305 302 300 299 299 298 296 294 293 292 292 291 290 288 287 285 285 284 282 279 274 267 260 257 255 254 252 250 248 246 243 241 242 243 243 242 243 241 238 235 234 235 235 234 234 233 233 234 235 235 235 236 238 239
337 339 341 343 344 344 343 342 343 343 342 340 339 338 337 336 335 333 331 329 326 324 322 321 319 318 317 315 313 311 309 307 304 302 300 300 298 296 294 292 291 291 290 289 287 286 285 284 283 283 281 277 272 263 258 256 254 252 251 248 246 244 241 240 242 242 241 242 241 239 235 233 233 233 232 232 233 233 234 234 234 234 235 236 238
340 341 344 345 345 344 343 343 344 344 342 341 340 340 339 338 336 334 332 330 328 325 324 322 320 318 317 315 313 311 310 308 306 304 301 299 298 296 294 292 291 290 289 288 287 285 284 283 282 282 281 279 275 268 261 257 255 253 251 249 247 245 242 239 240 241 241 241 240 238 236 233 232 231 230 230 231 232 233 233 233 234 234 235 237
342 343 344 344 344 344 344 344 344 343 342 342 341 340 340 338 337 335 333 331 329 327 326 324 322 320 317 315 313 312 310 308 307 305 301 298 296 295 294 292 291 289 288 288 287 286 284 283 282 281 281 279 277 272 265 259 257 254 252 249 248 245 243 240 238 239 240 240 239 237 235 233 231 229 229 229 230 230 231 232 233 234 234 235 236
342 343 343 343 344 345 344 344 344 343 343 342 342 341 340 339 338 337 335 333 332 330 328 326 324 322 319 317 315 313 311 309 307 305 301 298 295 293 292 291 290 289 288 287 287 287 285 283 282 281 280 279 277 274 268 261 257 255 253 250 248 246 244 241 239 238 239 239 239 237 234 232 231 229 228 228 229 229 230 231 232 232 233 234 236
342 342 342 343 344 345 345 345 344 344 343 343 342 342 341 340 339 338 336 335 334 332 330 328 326 324 322 320 319 317 314 311 308 305 302 298 295 293 291 290 289 289 288 287 286 286 285 283 281 280 279 278 277 275 271 263 257 255 254 251 248 246 244 242 240 238 237 237 239 236 233 232 230 228 227 226 227 229 230 231 232 232 232 233 235
341 341 342 344 345 345 345 345 345 344 343 342 342 341 341 340 340 339 338 338 337 335 333 330 328 327 326 325 323 320 317 313 310 307 304 300 297 295 293 292 291 289 289 288 287 286 285 283 281 279 278 277 277 275 272 267 259 255 253 251 248 245 244 243 242 239 236 235 237 236 233 231 229 227 226 226 227 228 229 230 232 232 232 232 234
341 341 343 345 345 345 345 345 344 344 343 342 341 341 340 340 340 340 339 339 339 338 336 334 332 331 329 329 327 325 321 318 315 313 310 306 302 299 296 295 293 292 291 290 288 287 286 284 281 280 278 277 276 275 272 268 262 255 252 251 248 245 243 243 243 241 237 234 234 233 231 230 228 226 226 227 228 228 228 229 231 231 231 232 234
341 342 344 344 344 344 343 343 343 343 342 342 341 341 340 340 340 340 339 339 338 338 338 337 335 333 332 332 331 329 326 324 322 320 317 313 309 305 302 299 297 295 293 292 290 288 286 284 281 280 279 276 275 274 272 269 264 258 253 250 248 245 242 242 242 241 238 232 230 229 229 229 229 228 227 228 228 227 227 228 228 229 231 233 235
340 342 343 343 342 342 342 342 342 342 341 341 341 340 340 341 340 340 339 338 338 338 338 337 337 336 335 334 333 331 330 328 326 324 322 320 317 313 310 306 303 299 296 294 292 290 287 284 281 279 278 277 275 273 271 268 264 259 253 250 249 246 243 241 241 241 238 232 229 229 229 229 229 228 227 227 227 227 227 227 227 228 231 233 235
340 341 341 340 341 341 341 340 340 339 339 339 339 339 339 340 340 339 339 338 338 337 337 337 337 337 337 337 335 332 330 329 327 326 325 324 322 319 316 313 310 306 302 298 295 292 289 286 283 279 277 277 276 273 271 269 264 259 253 250 249 248 246 244 243 242 238 233 229 228 228 227 227 227 227 226 226 226 226 226 227 228 230 233 235
338 338 338 338 338 339 338 338 338 337 337 336 337 337 338 338 339 339 339 339 338 338 338 338 338 338 337 337 335 332 329 326 325 325 325 325 324 322 320 318 315 312 308 304 300 296 293 289 285 282 278 277 275 273 271 269 265 260 254 249 248 248 248 247 245 242 237 232 229 228 226 226 227 227 227 227 226 226 225 226 227 228 230 233 235
335 335 335 335 335 336 336 336 336 336 335 334 335 336 336 337 338 339 339 339 339 338 337 337 338 338 338 336 335 332 329 324 322 321 321 321 321 321 320 319 318 316 313 310 305 301 297 293 289 285 280 277 276 274 272 268 265 261 255 250 247 247 247 246 243 240 235 232 230 229 227 227 228 228 226 226 226 227 228 228 228 229 230 232 233
332 332 332 332 333 334 334 335 335 334 333 333 333 334 335 336 337 338 338 339 339 338 337 336 336 337 337 336 334 332 329 324 320 318 317 317 317 317 318 318 318 317 315 314 310 305 300 297 293 289 284 279 277 276 273 269 265 262 257 252 248 246 246 244 241 237 234 232 230 228 227 227 227 226 225 226 226 227 228 229 229 228 228 230 231
330 329 330 330 331 331 332 333 333 333 332 332 332 333 334 335 336 337 337 337 337 337 336 335 335 335 335 335 334 332 331 327 321 317 315 314 314 313 314 314 314 314 314 314 313 310 304 299 295 292 287 283 279 276 273 270 265 262 259 255 249 246 244 242 239 236 233 231 229 227 225 224 224 225 226 227 228 227 226 227 227 227 228 230 231
327 327 328 328 328 329 330 330 330 330 330 330 330 331 332 334 335 335 335 335 335 336 335 335 334 334 334 334 333 332 332 330 325 320 316 314 312 311 311 311 311 311 311 311 312 312 308 302 297 293 289 286 282 278 273 269 265 262 260 257 251 246 243 240 238 237 234 231 230 228 226 224 223 224 224 226 228 228 227 227 228 229 230 231 232
326 326 326 326 327 327 327 327 328 328 329 328 329 329 330 331 332 333 333 333 334 334 334 334 333 333 333 333 332 331 331 330 327 323 318 315 312 311 310 309 309 308 308 308 308 309 309 305 299 294 291 288 284 280 274 269 265 262 260 258 253 248 243 239 237 237 235 232 232 230 226 224 224 225 226 228 230 230 230 230 229 229 230 230 229
325 325 325 326 326 326 326 325 326 326 327 327 327 327 328 329 330 331 331 332 332 332 332 333 332 332 332 331 331 330 329 328 327 324 320 317 314 311 310 309 307 307 307 306 305 306 308 307 302 296 292 289 286 281 275 270 266 262 259 257 253 249 245 240 237 237 236 233 232 231 230 228 229 230 230 230 230 230 230 230 228 227 227 227 228
324 324 325 325 325 325 325 324 324 325 326 326 326 326 326 327 328 329 329 330 330 330 330 331 331 331 331 330 329 329 328 328 327 325 322 320 317 313 311 309 308 306 305 304 304 304 306 307 305 299 293 289 285 280 276 272 268 262 258 256 253 250 246 241 237 237 237 235 233 233 234 234 234 235 234 232 230 230 229 229 228 226 226 226 227
323 323 324 324 324 324 324 324 324 324 325 325 324 324 325 326 326 327 328 328 328 328 328 329 329 330 330 329 328 328 328 328 328 327 324 321 318 314 311 310 309 307 305 303 302 303 305 306 306 303 296 289 284 279 276 273 269 263 258 255 253 249 244 239 236 235 236 236 235 233 234 235 236 236 235 232 230 229 229 228 228 227 227 228 228
323 323 323 323 324 324 324 324 324 324 324 324 323 323 324 325 325 326 326 326 326 326 326 326 327 328 328 328 328 327 328 328 328 327 325 323 319 314 311 309 308 306 304 303 302 302 304 305 306 305 299 291 283 279 276 274 269 264 259 256 253 249 242 237 235 234 235 236 235 233 232 233 235 236 234 231 229 228 227 227 227 226 226 228 228
324 323 323 323 324 324 324 324 324 324 324 323 323 323 323 324 324 325 326 325 325 325 325 325 326 327 327 328 327 327 327 327 327 327 326 324 320 315 312 310 309 306 303 302 301 301 303 305 306 306 302 293 284 279 276 274 269 264 260 256 252 247 241 236 234 233 232 234 235 234 232 232 234 236 234 230 229 227 225 225 226 226 226 226 227
324 324 324 325 326 326 326 326 326 326 326 325 324 323 323 323 324 325 326 325 325 325 325 326 326 327 327 327 326 326 326 326 326 326 326 324 321 317 314 312 311 308 304 302 300 300 301 303 304 305 303 296 287 280 276 273 270 266 260 255 250 246 241 234 231 230 230 232 234 234 232 230 231 233 231 228 227 227 225 225 226 226 226 226 227
325 326 327 328 329 329 328 328 328 327 327 326 325 324 324 324 325 326 326 326 326 325 326 326 327 327 326 326 326 326 325 325 325 325 325 324 322 319 316 314 313 310 306 302 299 299 300 301 303 304 304 299 291 282 276 273 271 267 261 254 247 244 239 232 227 226 227 229 231 232 231 228 228 229 228 226 225 226 226 226 226 226 226 226 226
328 329 329 329 329 328 328 328 328 327 326 326 326 326 326 326 326 326 326 326 326 326 326 327 327 327 326 325 326 326 325 325 325 325 325 324 322 320 317 314 313 312 309 304 301 299 299 299 301 303 302 300 293 285 277 272 269 266 261 254 247 243 239 233 227 225 226 227 229 231 230 228 226 226 226 225 224 224 224 224 224 223 223 224 224
330 330 329 328 328 327 327 327 327 327 326 326 326 327 327 327 326 326 326 326 326 326 326 326 326 326 325 325 326 326 325 325 326 326 325 323 321 319 316 314 312 312 310 308 304 301 299 298 300 302 302 300 295 288 281 274 268 264 260 255 248 244 240 235 231 229 229 229 230 230 231 229 226 225 225 225 225 224 223 221 220 220 220 221 221
329 329 328 327 327 327 327 327 327 327 326 326 327 327 327 327 326 326 326 326 326 326 325 325 325 325 325 325 325 324 324 325 325 325 324 322 320 319 316 314 311 310 309 308 306 304 301 299 299 302 303 302 298 291 285 278 270 264 259 255 250 245 242 238 234 232 231 230 229 230 231 230 228 226 226 225 225 224 222 220 219 218 218 218 218
328 327 327 326 326 326 326 327 327 327 327 327 327 327 327 327 326 325 325 326 325 325 324 324 324 325 325 324 324 323 322 323 324 324 322 321 320 318 316 314 311 308 308 308 306 303 302 300 299 300 303 304 300 292 286 280 274 266 259 255 251 247 243 240 236 233 230 229 228 228 229 230 230 229 227 225 223 222 221 219 218 217 216 215 216
326 326 326 326 326 326 327 327 327 328 328 327 327 327 327 327 326 324 324 324 324 324 323 323 322 323 323 323 323 322 322 321 322 322 321 321 319 318 316 314 310 306 305 306 305 302 301 301 300 300 302 303 300 293 285 280 274 268 261 255 252 248 244 240 237 233 230 229 228 227 228 228 228 229 228 225 223 222 221 219 217 216 215 215 215
326 327 327 327 327 327 327 328 328 328 328 327 327 327 327 327 326 325 324 323 323 322 322 322 321 321 320 321 321 322 322 321 320 320 320 319 318 316 315 313 309 304 303 304 303 301 300 300 300 300 301 301 299 292 282 276 272 268 263 258 254 250 245 240 237 234 232 230 229 228 226 225 225 226 228 227 224 223 222 220 218 216 215 214 215
327 328 328 328 327 327 328 328 328 328 328 327 327 326 326 326 325 325 324 323 322 321 321 322 321 320 319 318 319 320 320 319 318 318 318 317 315 314 313 311 306 302 301 301 300 298 298 298 298 299 299 299 296 289 279 273 269 266 263 260 255 251 247 241 237 235 234 232 230 228 227 225 224 223 226 227 225 223 223 222 219 217 216 215 214
328 328 328 328 328 328 328 328 328 328 327 327 326 326 326 325 325 324 323 323 323 322 321 321 321 320 318 317 317 317 317 317 316 316 316 314 312 311 310 307 304 300 298 297 297 296 296 296 296 297 298 297 293 287 279 272 267 264 263 261 257 252 249 244 240 237 235 234 232 230 229 228 227 226 227 227 225 222 222 222 221 218 217 216 215
328 328 328 328 328 328 328 328 327 327 327 327 327 326 326 325 325 324 323 323 322 321 320 320 320 320 318 317 316 315 315 315 314 313 313 311 309 308 306 303 301 299 296 294 295 295 294 294 294 294 294 293 290 284 278 273 268 263 262 261 259 255 251 248 245 241 238 235 234 234 232 230 228 227 228 228 225 222 222 223 222 220 218 216 215
328 328 328 328 328 328 327 327 327 327 327 328 328 328 327 326 326 325 324 323 322 321 319 319 319 319 318 317 315 314 313 313 312 311 311 309 306 305 303 300 298 296 294 293 293 292 291 291 291 290 289 290 288 283 277 273 268 264 260 259 258 257 253 250 248 245 240 237 235 234 232 228 226 227 228 226 224 223 223 224 223 221 219 216 215
328 328 329 328 328 328 328 328 329 329 329 329 328 328 328 327 326 326 325 324 323 321 320 319 319 319 318 318 316 314 313 312 312 311 309 306 303 302 301 299 297 294 292 290 290 289 287 286 286 286 287 288 288 283 278 274 270 266 261 258 257 256 255 251 248 246 243 239 235 233 230 226 226 228 229 227 225 224 224 223 222 221 219 217 216
328 329 329 329 329 330 330 330 330 330 330 329 329 329 329 328 328 327 326 325 324 323 321 319 318 318 318 318 318 315 313 311 310 309 308 305 302 300 299 298 295 292 289 287 285 284 283 281 281 282 285 287 286 283 279 276 272 267 262 259 257 256 254 251 248 244 242 239 236 233 231 229 229 231 230 229 228 226 224 222 220 219 219 219 219
328 329 330 330 331 331 331 331 330 330 330 330 330 330 330 329 329 328 328 327 326 324 323 322 320 319 318 318 317 315 313 310 308 307 305 303 300 299 298 296 293 290 287 283 279 279 279 278 278 279 282 284 284 282 279 277 274 269 264 260 257 255 253 251 248 244 241 239 236 234 233 231 231 231 230 228 227 226 224 222 220 219 219 219 220
329 330 331 331 331 331 331 331 331 331 331 331 330 330 330 330 329 329 329 328 327 326 325 324 323 321 320 319 317 315 312 308 306 305 303 300 297 296 296 293 290 288 285 280 276 275 276 276 277 278 279 282 283 282 280 277 273 270 266 261 257 254 251 249 247 244 241 238 236 234 233 233 230 229 227 226 224 223 222 222 222 221 220 220 220
330 331 331 331 331 331 331 331 332 331 331 330 330 330 330 330 330 329 329 329 328 327 326 325 323 322 321 320 318 316 312 308 305 302 300 296 294 292 292 290 288 286 282 278 274 273 273 274 275 275 276 278 282 283 282 278 273 270 266 261 256 252 249 247 246 244 241 238 236 233 232 231 229 226 224 223 222 222 222 222 222 223 223 223 222
330 330 330 330 331 331 331 331 331 331 331 330 330 330 330 330 330 329 329 328 328 327 325 324 322 321 320 319 317 316 313 309 305 301 298 293 289 286 286 286 285 284 281 277 274 271 270 271 271 271 271 274 278 282 283 280 274 269 265 259 254 251 249 248 246 244 241 238 236 234 232 230 228 226 224 222 221 221 222 223 223 224 225 225 223
330 330 330 330 331 331 331 331 331 331 331 331 331 331 330 330 330 329 328 328 327 326 325 323 322 321 319 317 315 313 310 308 305 301 298 293 287 281 277 277 280 281 279 276 274 271 270 269 268 267 268 269 272 276 280 279 274 268 264 260 255 252 250 249 247 245 242 239 236 235 233 231 229 227 226 224 222 221 221 222 222 224 224 224 223
329 330 330 331 331 331 331 331 331 331 331 331 331 330 330 330 329 329 328 327 327 326 325 324 323 321 320 318 315 312 308 305 302 298 296 293 288 279 270 267 272 276 276 276 276 272 270 268 267 267 267 267 267 270 275 277 274 268 264 261 259 255 252 250 247 246 244 242 239 236 234 233 231 229 227 227 225 223 221 220 220 221 221 221 221
329 330 330 331 331 331 331 331 331 331 331 331 330 330 330 330 330 329 329 328 327 326 326 325 324 323 322 320 317 314 310 305 301 297 293 290 287 279 266 259 263 269 273 275 276 273 269 268 267 266 266 265 265 267 271 273 273 270 265 262 260 258 255 252 249 246 245 243 241 238 236 235 233 231 229 228 227 226 224 222 221 222 221 221 220
328 329 330 330 331 331 331 331 331 331 331 331 330 330 330 330 330 330 329 329 328 328 327 327 326 325 323 322 320 317 313 308 303 298 292 287 284 277 264 254 255 262 269 272 275 274 271 270 268 266 265 265 264 265 266 268 270 271 268 264 260 258 257 256 253 250 247 245 243 241 239 237 235 234 232 230 228 227 226 224 224 224 225 224 222
328 329 330 331 331 331 331 331 331 330 330 331 331 331 331 331 331 331 331 330 330 329 329 329 328 326 325 323 321 318 315 310 305 300 294 286 279 272 261 251 249 255 263 269 273 275 275 273 270 267 265 264 262 261 261 264 268 270 269 265 262 259 258 258 256 252 250 248 246 243 241 239 237 235 234 232 230 229 228 226 224 225 226 226 225
329 330 330 331 331 331 331 331 331 331 331 331 331 332 332 332 332 332 332 332 332 332 332 331 330 329 327 326 323 320 317 313 307 302 296 286 275 265 257 248 245 250 258 265 271 276 276 274 271 268 265 263 261 260 261 263 265 267 268 267 264 261 259 258 256 254 252 251 249 246 244 241 238 236 235 233 232 231 230 228 226 225 225 226 226
330 330 331 331 331 331 331 331 331 331 332 332 333 333 333 333 333 333 333 333 334 334 334 334 333 332 330 329 326 324 320 316 311 306 298 286 270 257 251 245 244 249 256 263 269 275 276 273 270 268 267 265 263 262 262 261 261 263 267 269 268 264 261 259 257 255 254 252 250 248 245 243 240 238 236 234 233 233 232 231 229 227 226 226 227
330 331 331 331 331 331 332 332 333 333 333 334 334 334 335 335 335 335 335 336 336 337 337 336 335 335 334 333 331 328 325 321 317 311 301 283 260 248 246 244 243 247 255 263 268 272 273 272 270 268 267 266 264 261 261 261 261 262 265 269 270 269 266 262 258 256 255 253 251 248 246 243 241 240 238 236 234 234 233 232 231 230 229 228 228
331 331 332 332 332 333 333 334 334 335 335 335 336 336 336 337 337 337 338 338 339 339 338 338 338 338 337 336 335 332 330 327 324 318 306 281 253 242 243 244 243 247 256 263 266 268 270 271 270 267 266 266 266 264 262 263 263 263 264 266 268 269 268 266 262 259 257 255 252 250 249 247 245 243 240 238 236 236 235 234 233 232 231 230 229